Theta_e
279 278 278 278 278 277 277 277 277 280 281 281 282 283 283 284 284 284 284 284 283 283 284 283 284 284 283 282 282 282 282 283 284 284 283 283 283 283 283 284 283 284 284 284 285 285 285 284 284 284 284 283 284 283 281 282 282 283 283 282 282 283 282 281 280 277 275 275 276 275 276 276 275 276 276 276 277 279 279 277 278 278 277 277 278
278 278 278 278 277 277 276 276 276 278 280 281 281 281 282 282 284 284 283 283 284 284 283 284 284 284 283 283 283 283 283 283 283 284 283 283 283 284 283 283 283 283 283 283 284 285 285 284 284 284 284 284 284 283 282 281 281 281 282 282 282 282 282 281 281 277 274 274 273 275 275 276 274 276 275 275 275 277 276 276 277 276 276 276 276
278 277 277 277 277 276 275 275 275 276 279 280 280 281 282 283 283 283 283 283 283 283 283 283 283 283 283 283 283 283 282 283 283 283 283 283 283 283 283 282 282 282 282 282 283 283 283 283 284 284 284 283 283 283 283 282 282 281 281 282 281 281 281 281 281 277 274 273 274 273 274 275 274 275 275 276 275 276 275 275 276 277 277 276 276
277 277 276 276 276 275 274 274 275 276 277 280 280 281 282 283 283 283 284 284 283 283 282 282 283 283 283 283 283 283 283 283 282 282 282 282 282 282 282 282 282 282 282 282 282 282 282 282 282 283 283 283 282 282 282 282 281 281 281 281 281 281 281 281 281 279 275 273 274 273 274 274 274 276 276 276 275 275 275 275 276 276 276 277 276
276 276 276 275 274 274 273 274 274 276 277 280 280 281 282 283 283 282 281 280 280 280 281 281 282 282 283 282 283 283 284 283 282 281 281 282 282 282 282 282 282 282 282 282 283 282 282 282 282 282 283 282 282 282 282 281 281 281 280 280 280 280 280 280 280 280 276 274 273 274 275 274 275 276 276 274 274 274 274 274 275 275 275 276 277
275 275 275 273 272 272 272 273 274 276 278 279 280 280 280 280 280 280 279 278 279 279 279 280 281 281 282 283 283 283 284 283 283 282 281 281 281 282 282 281 281 281 281 282 282 282 282 282 282 282 282 282 282 282 282 281 281 280 280 280 280 280 279 279 279 279 277 275 274 273 274 273 273 274 275 274 273 273 273 273 274 274 274 274 275
275 273 272 271 271 271 272 273 275 276 277 278 279 279 279 279 279 279 279 278 278 278 279 280 281 281 282 283 283 283 283 283 283 283 282 281 281 281 281 281 282 282 282 282 281 281 282 282 282 282 282 282 282 282 282 281 280 280 280 280 280 279 278 278 278 278 278 276 274 274 273 274 274 272 275 276 275 274 272 272 272 274 274 274 274
272 271 270 270 270 271 272 274 275 276 277 278 278 278 278 278 278 278 278 278 278 279 279 280 282 282 282 282 282 282 282 282 282 282 282 282 281 281 282 282 283 283 283 283 282 282 282 282 282 283 282 282 282 282 282 281 280 279 280 280 279 278 277 277 277 277 277 276 274 274 274 273 273 274 275 275 273 272 273 273 271 272 273 274 274
270 269 269 270 270 272 273 275 276 276 277 277 277 277 277 277 278 278 278 279 280 281 281 281 281 282 283 283 283 284 283 281 281 281 281 281 280 281 281 282 282 282 282 283 283 283 282 282 282 282 283 283 283 283 283 283 280 279 279 279 278 278 277 277 276 276 276 276 275 275 274 273 273 273 272 272 271 271 273 274 272 273 273 273 274
269 269 269 270 272 273 274 274 274 275 275 275 276 276 276 275 275 276 277 279 280 280 280 280 280 281 281 282 283 283 282 282 284 286 285 282 281 282 282 282 282 282 283 283 283 283 283 283 283 283 283 283 283 283 284 283 283 281 280 279 278 277 277 276 276 276 276 275 275 274 273 272 272 272 272 273 274 274 274 273 271 272 271 269 272
268 269 270 271 271 272 272 272 272 273 274 274 275 274 273 273 273 274 275 277 278 279 279 279 279 280 281 282 282 283 283 283 286 287 287 287 285 282 282 283 284 283 283 283 282 282 283 283 282 282 283 283 283 284 283 284 283 283 282 281 280 278 276 276 275 276 275 275 275 275 274 273 273 273 273 274 274 274 274 273 272 272 270 269 267
268 267 267 267 268 270 270 270 271 272 273 274 274 273 272 272 272 272 273 274 276 278 278 278 279 280 281 282 282 282 283 285 287 287 287 287 287 284 283 283 283 283 283 283 283 282 282 282 282 282 282 282 282 282 283 283 283 283 282 282 281 281 281 278 276 275 275 275 274 275 275 274 273 274 274 275 274 274 274 273 272 271 270 269 269
266 266 266 266 267 268 269 270 271 272 273 273 273 272 271 271 271 272 273 274 276 277 277 278 279 280 281 282 282 282 280 285 287 287 287 287 287 286 284 283 283 283 283 283 283 282 282 281 281 281 281 283 282 282 281 282 283 283 282 282 281 281 281 281 281 278 277 276 275 275 275 275 274 274 275 275 276 274 273 272 273 273 271 269 269
265 265 266 266 267 268 269 270 270 271 271 271 271 270 270 270 271 272 273 275 276 276 278 279 280 281 282 282 282 282 281 284 286 287 286 287 287 286 284 283 283 283 284 283 283 282 282 281 280 280 280 281 281 281 280 280 280 281 280 279 279 280 281 281 280 280 279 277 276 275 276 277 275 276 277 278 276 274 273 272 273 272 270 269 270
264 265 265 267 268 268 269 269 268 268 268 269 269 269 270 270 270 271 273 274 276 277 278 280 281 282 281 281 280 281 282 285 286 286 286 287 287 286 284 283 283 283 284 284 283 283 282 281 281 280 280 279 280 281 280 279 279 279 279 278 278 278 279 279 279 278 278 278 277 277 277 278 277 278 278 278 277 275 274 273 273 271 269 266 267
264 265 265 266 267 267 268 267 267 267 267 268 268 269 269 269 270 271 272 273 276 278 279 280 281 281 280 279 279 279 280 285 285 286 286 286 286 284 283 282 283 283 284 283 283 283 282 282 281 280 279 279 280 282 281 279 278 278 277 277 277 278 278 280 281 280 279 278 277 277 277 278 279 277 277 276 275 274 273 271 269 267 266 265 265
264 264 265 265 266 267 267 266 266 266 266 267 267 268 268 268 269 270 271 272 274 276 277 279 281 281 280 279 279 281 281 284 285 285 286 286 285 283 282 282 281 281 282 282 281 281 281 281 281 280 280 279 280 282 282 280 277 277 276 276 276 276 276 278 281 282 281 281 281 281 281 281 281 281 280 279 275 273 271 269 266 267 266 263 264
263 264 264 265 265 266 266 266 265 265 266 266 267 267 268 268 269 270 271 272 273 275 277 279 281 282 281 280 281 282 282 284 285 285 286 286 285 283 282 282 281 281 281 281 281 281 282 283 282 280 279 278 281 282 282 280 277 277 276 275 275 275 275 277 279 280 282 281 281 281 281 281 281 281 280 279 278 275 271 268 268 268 265 264 263
263 263 264 265 266 266 266 265 265 265 265 266 266 266 267 267 269 270 271 273 274 276 278 279 281 282 283 282 283 283 282 283 284 285 286 286 285 284 283 282 281 281 281 280 280 280 280 282 282 281 279 279 281 282 282 280 277 277 276 275 274 274 275 276 277 277 277 277 277 278 278 278 277 277 277 278 277 275 272 271 268 267 265 264 262
264 264 264 265 266 266 265 265 265 265 265 266 266 266 267 268 269 270 271 273 274 276 278 280 281 281 282 282 282 282 281 282 283 285 286 285 286 284 283 282 281 280 279 279 278 278 279 279 281 282 281 281 281 282 282 282 277 277 276 275 274 273 276 276 277 277 276 275 274 270 267 269 271 272 273 273 271 270 269 269 268 267 265 263 262
264 264 264 265 265 265 265 265 265 265 265 266 266 267 267 268 269 270 271 273 275 276 278 280 280 280 280 280 281 282 283 283 283 284 284 284 284 284 283 282 281 279 278 277 277 276 276 277 278 281 281 281 281 282 282 282 280 277 276 275 275 276 277 275 276 278 274 270 268 267 267 267 267 267 266 266 265 265 264 264 264 265 265 263 260
264 264 264 264 264 264 264 265 265 265 266 266 266 266 267 269 270 273 274 274 275 277 279 280 280 280 281 282 283 282 282 282 281 282 282 283 283 283 281 281 281 279 277 276 276 276 276 277 277 280 281 281 281 282 282 282 281 277 276 278 279 279 276 276 276 272 270 269 268 267 267 267 266 265 264 263 262 262 260 259 259 259 259 260 262
264 263 263 263 263 263 264 264 264 265 265 266 266 266 267 269 271 273 274 276 278 279 280 280 280 280 280 280 280 279 279 279 280 279 280 281 282 282 282 281 282 280 277 276 275 275 276 276 277 280 281 281 281 282 282 282 280 277 280 280 279 279 277 274 271 270 270 269 269 268 267 267 266 265 264 262 261 259 259 258 256 257 257 257 258
263 263 263 263 263 263 264 264 264 265 265 266 266 266 268 269 271 272 274 275 277 279 280 280 280 279 278 278 278 278 278 278 279 279 279 280 280 281 281 282 282 279 277 276 276 276 275 276 277 280 281 281 281 281 282 280 278 279 280 279 279 277 273 271 271 270 269 269 268 268 268 268 266 265 263 262 260 258 257 256 255 253 253 254 256
262 262 262 262 263 263 263 264 264 265 266 266 266 267 268 269 269 271 272 274 275 277 277 278 278 278 277 277 277 277 277 277 276 278 279 279 280 280 281 281 282 281 277 276 276 276 277 278 279 280 280 281 281 281 281 280 279 280 279 279 278 273 272 271 270 270 269 268 268 268 267 266 265 263 261 259 257 257 256 254 252 253 253 253 253
262 262 262 262 262 263 263 263 264 265 266 266 266 267 268 268 269 270 271 273 274 276 277 277 276 276 276 276 276 276 276 275 275 276 277 278 279 279 280 281 281 280 278 277 278 278 279 279 279 280 280 280 279 278 277 278 279 279 279 276 272 272 271 271 270 269 268 268 267 266 263 260 259 259 259 258 256 255 254 254 252 253 252 253 254
261 262 262 262 262 263 263 263 264 265 265 265 266 267 267 268 268 269 270 271 272 274 276 276 276 275 275 276 276 276 275 274 274 274 275 276 277 278 280 281 281 279 277 277 278 277 278 278 278 279 279 280 279 278 278 279 278 275 272 272 272 271 271 270 270 269 268 267 264 263 261 259 258 258 258 258 256 255 254 255 254 254 255 254 254
261 261 261 262 262 263 263 264 264 264 264 265 265 265 266 267 267 268 269 270 271 273 275 275 275 275 274 274 274 275 275 274 273 274 275 276 277 278 279 277 276 276 276 276 276 277 277 279 279 278 277 277 276 275 273 271 270 270 270 270 270 270 272 273 271 268 267 265 263 261 260 260 259 258 258 257 256 255 255 255 254 254 255 253 253
261 261 262 262 262 263 263 263 264 264 264 265 265 266 266 267 267 269 271 273 274 274 275 275 276 275 274 273 273 273 274 273 274 277 277 278 279 278 276 276 276 276 277 278 276 275 274 273 272 271 271 270 269 269 269 268 267 268 268 268 268 268 267 266 265 264 263 262 261 260 260 260 259 258 258 257 256 256 255 254 254 253 253 252 253
261 261 261 261 262 262 263 263 263 264 264 264 264 265 269 271 271 270 271 274 277 278 279 276 276 275 274 274 275 274 274 274 278 278 278 279 280 279 278 278 278 277 278 278 274 272 272 271 270 269 269 269 268 267 267 267 266 266 266 268 266 266 265 264 263 263 263 262 261 261 260 259 258 258 256 257 256 255 256 260 253 253 253 252 253
261 261 261 261 262 263 263 263 263 264 264 264 264 264 265 268 271 273 274 275 276 278 279 278 278 278 277 274 276 278 279 278 278 278 278 279 280 280 279 279 279 279 278 274 272 271 270 269 269 269 269 268 267 267 266 266 265 265 264 264 265 265 263 263 262 262 262 261 261 260 259 259 258 257 258 257 257 255 255 255 253 253 252 253 253
260 261 261 262 262 263 263 263 263 263 264 264 264 265 265 265 267 271 273 275 277 279 278 278 279 279 280 279 278 276 278 278 278 278 279 280 280 280 280 280 279 279 277 276 271 270 270 269 268 268 268 267 266 266 266 265 265 264 264 263 262 263 262 261 262 262 261 260 260 259 259 258 258 257 256 256 256 255 254 254 253 253 254 254 254
260 261 261 262 262 263 263 263 263 264 264 264 264 265 265 265 265 266 270 274 276 278 278 278 279 279 281 280 280 279 278 278 278 279 279 281 281 280 280 280 279 278 276 272 270 269 269 268 267 267 267 266 267 266 266 265 265 264 264 263 262 261 261 262 262 260 259 259 259 258 257 257 257 256 256 255 255 256 255 254 253 253 253 254 254
261 261 262 262 262 262 263 263 264 264 264 265 265 265 266 266 266 267 267 269 271 275 277 277 278 279 280 280 280 279 279 279 279 279 280 281 281 280 279 278 278 277 274 270 270 268 268 268 268 267 267 267 266 265 265 265 264 264 263 262 260 260 260 260 260 260 259 259 258 256 256 256 256 257 256 255 255 255 255 254 253 253 253 252 252
261 262 263 263 263 263 263 264 264 264 265 265 265 266 266 267 267 268 268 268 269 271 271 273 276 278 279 279 280 280 280 280 280 280 281 281 281 280 278 274 272 272 271 271 270 269 268 268 267 267 267 266 266 265 265 264 264 263 261 260 259 259 260 260 259 258 258 257 257 256 255 255 255 255 256 256 255 254 254 253 252 252 252 252 252
262 262 262 262 263 263 264 264 264 265 265 265 266 267 267 267 267 268 269 270 271 271 271 272 274 276 278 279 280 280 280 280 280 280 281 281 279 277 272 270 270 270 270 269 269 269 269 268 268 267 266 266 266 265 265 264 264 262 261 259 259 259 259 258 258 257 256 257 256 257 256 254 254 254 254 254 254 254 253 253 252 252 252 251 252
262 262 262 262 263 263 264 265 265 266 267 267 267 267 267 268 268 269 269 270 271 272 271 272 273 274 276 276 279 279 280 280 280 280 279 278 277 274 271 271 270 270 269 269 269 269 268 267 267 267 266 266 265 265 265 264 263 261 262 259 259 259 259 258 257 257 256 256 256 256 254 255 254 253 255 255 253 253 252 251 251 253 254 254 255
262 262 262 263 264 264 265 265 266 267 267 267 267 267 267 268 268 269 270 270 272 271 270 271 273 272 272 273 278 276 276 277 277 276 276 275 273 271 271 270 270 269 269 269 269 268 267 267 267 266 266 265 265 265 264 263 263 261 260 259 259 259 263 261 260 256 256 256 255 254 254 253 253 253 254 254 254 253 251 251 250 252 253 253 252
263 263 264 264 265 265 265 266 266 266 266 267 267 267 268 268 268 269 270 270 271 271 270 271 271 272 272 274 274 275 275 272 271 271 271 271 271 271 270 269 269 269 269 268 268 268 267 266 266 266 265 265 264 264 264 263 262 261 260 260 260 261 260 257 257 256 255 255 254 253 253 253 252 251 252 253 252 251 251 250 250 250 250 250 250
262 263 264 265 265 266 266 266 266 266 267 267 267 268 268 268 268 269 270 270 271 270 270 270 271 272 273 274 273 272 272 271 271 270 270 270 270 270 269 268 268 268 268 268 268 267 266 266 266 265 265 265 264 264 263 262 261 260 260 261 260 258 257 257 256 256 256 255 255 254 254 253 252 252 250 251 251 250 251 250 250 250 249 249 250
263 263 264 265 265 265 266 266 266 266 267 267 268 268 268 269 270 270 270 271 270 270 270 271 272 272 274 276 276 275 272 271 271 271 270 269 269 269 269 268 268 267 267 267 267 267 266 265 265 264 264 264 264 263 262 261 260 260 260 260 259 257 256 256 256 256 256 255 254 253 253 253 253 252 253 252 258 254 249 250 250 250 250 250 250
263 263 263 264 265 265 265 266 266 267 268 268 269 269 270 270 270 270 271 270 270 270 270 271 272 272 274 276 276 275 272 271 272 271 270 270 269 269 269 268 268 267 267 267 266 265 264 264 263 263 262 262 262 262 261 261 261 261 260 260 258 257 256 256 255 255 254 254 253 253 251 252 252 253 255 259 251 250 249 249 249 250 250 250 250
263 263 264 264 265 265 265 266 267 267 267 268 268 270 271 271 271 271 270 270 270 270 270 270 271 271 272 273 273 272 270 270 269 270 270 269 268 267 266 266 266 266 266 266 265 265 264 263 262 261 261 261 261 261 261 261 261 261 261 260 258 257 256 255 254 254 253 253 253 252 252 253 254 251 250 250 249 249 249 250 251 250 250 250 249
263 264 264 265 265 266 266 266 266 267 267 268 269 270 271 270 270 270 270 269 269 270 270 270 270 270 270 271 270 269 268 268 267 267 267 266 266 265 264 264 263 264 264 264 263 263 263 262 261 261 261 261 261 262 262 261 261 261 260 259 257 256 256 255 255 254 254 253 253 252 252 251 251 251 252 251 249 250 249 249 250 250 251 249 249
263 264 264 264 265 265 265 266 267 267 268 268 268 270 271 270 270 270 269 269 269 269 270 270 269 269 269 269 268 267 267 266 267 266 265 265 264 264 264 263 262 261 262 262 262 262 262 261 261 261 260 260 261 261 260 260 258 258 258 258 257 257 256 255 254 253 254 254 253 252 251 251 250 250 250 249 249 249 251 248 249 253 250 249 249
264 264 264 264 264 265 265 266 267 267 267 267 268 268 270 270 270 269 269 269 269 269 269 269 268 268 267 267 267 266 265 265 264 264 264 263 263 263 263 262 262 262 262 262 262 262 262 261 260 260 259 259 259 258 258 257 257 257 257 255 256 255 255 255 254 255 254 254 254 252 252 251 249 250 252 250 249 249 249 249 249 249 248 249 249
264 264 264 264 264 265 265 266 266 266 266 267 267 268 269 269 269 269 269 269 269 269 268 268 267 267 267 266 266 265 265 264 263 263 262 262 262 262 262 262 261 262 262 262 261 261 261 261 260 259 259 258 257 257 257 257 256 256 255 256 256 256 255 255 255 254 253 253 253 253 252 252 251 250 250 250 251 250 250 249 249 248 248 249 249
263 263 263 264 264 264 264 265 265 266 266 266 267 268 269 269 269 269 269 269 268 268 268 267 267 267 266 266 266 265 265 264 263 262 262 261 261 261 262 262 261 260 260 260 260 260 260 259 259 258 257 257 256 256 256 256 255 255 253 253 254 255 255 255 254 253 252 252 253 252 252 252 250 249 249 248 249 249 250 250 251 250 249 249 250
263 263 263 263 264 264 264 264 265 265 265 266 266 267 268 268 268 268 268 268 268 267 267 266 266 266 265 265 265 265 265 264 262 262 261 261 261 260 260 260 260 260 259 258 258 258 258 258 257 256 256 255 255 255 255 254 253 252 251 251 254 254 254 254 253 253 254 253 252 251 250 250 249 248 249 248 249 248 249 249 248 249 249 249 249
262 263 263 263 263 264 264 264 265 265 265 266 266 267 267 267 267 267 267 267 267 267 266 266 265 265 265 264 264 264 263 262 262 261 261 260 260 260 259 259 258 258 257 257 256 256 256 255 255 255 255 254 254 254 253 253 251 251 250 252 254 254 254 254 254 254 254 251 251 250 250 249 248 248 247 247 247 248 248 248 248 250 249 248 248
262 262 262 263 263 263 263 263 264 264 264 265 266 266 266 266 267 267 267 266 266 266 265 265 265 265 264 264 264 263 262 261 260 259 259 258 258 258 258 258 257 256 255 255 255 255 254 254 254 254 254 254 254 253 252 251 250 251 252 253 253 253 253 254 254 253 254 253 250 250 250 250 248 249 248 247 246 246 249 250 249 249 248 248 249
Wind_Speed
14 14 15 16 16 15 16 19 22 19 16 15 14 13 12 12 11 10 12 12 8 7 8 8 8 8 8 8 8 7 7 7 8 8 8 9 8 8 8 8 10 9 9 9 9 9 10 11 11 10 8 8 7 5 6 6 7 7 7 8 9 10 9 10 10 5 2 3 8 9 11 11 9 10 9 8 8 8 9 7 8 8 7 6 6
12 14 15 15 17 16 18 20 22 20 16 14 13 13 12 12 12 10 9 7 6 9 9 9 9 9 9 8 8 8 8 8 8 9 9 9 9 7 7 8 9 9 8 9 9 9 9 10 11 10 9 10 9 9 7 5 7 7 8 9 10 9 9 9 9 6 7 4 5 4 8 10 10 9 11 10 9 8 9 7 6 6 6 6 6
14 15 16 16 15 15 17 18 20 22 18 13 13 12 12 12 12 12 9 7 7 8 9 9 9 9 9 9 9 8 8 7 7 8 9 10 10 9 8 8 9 9 9 9 8 7 8 9 10 9 7 8 9 9 8 8 7 9 10 8 9 10 10 10 8 6 10 6 7 8 9 8 9 10 10 7 7 8 9 8 7 6 5 6 6
16 16 15 14 14 15 17 17 20 21 19 14 12 12 11 10 9 9 10 9 9 9 8 8 8 8 10 10 9 8 8 7 7 7 8 8 9 10 9 9 9 9 8 8 8 7 8 9 8 8 8 9 8 8 7 8 9 9 10 9 10 11 9 9 10 7 7 10 8 7 9 10 7 7 8 6 8 7 8 7 7 7 7 7 7
16 16 14 15 16 18 22 19 19 21 20 14 12 11 10 9 8 9 7 5 6 8 9 9 11 11 11 10 10 10 10 9 8 8 7 7 8 8 9 8 9 9 9 9 8 8 9 10 9 7 7 9 8 8 8 9 9 9 10 9 10 10 8 9 11 8 10 11 8 7 7 4 6 8 10 9 7 6 5 8 8 8 7 7 7
17 13 13 16 20 24 21 18 18 19 18 14 13 9 8 7 9 9 10 12 11 10 11 11 11 12 12 11 10 11 10 10 10 9 8 7 7 7 7 8 8 8 8 8 8 8 8 9 9 8 8 10 10 9 8 10 9 10 11 10 10 8 9 10 10 10 11 10 11 9 9 9 8 7 9 9 9 8 5 4 4 5 6 6 6
14 13 16 20 22 21 18 16 16 15 15 14 12 10 10 11 11 12 11 11 11 11 11 12 11 11 12 11 10 10 10 9 8 8 7 7 7 7 7 7 7 7 7 7 8 8 9 8 8 8 9 10 11 11 10 10 10 11 11 11 10 10 10 10 10 11 11 10 10 11 11 9 10 10 8 9 8 7 8 7 7 6 6 7 6
16 17 18 19 18 17 16 15 15 14 13 12 11 11 10 10 10 10 10 11 11 12 12 11 9 8 9 8 6 7 8 7 6 7 6 7 7 7 8 8 8 9 9 9 8 8 8 9 9 9 9 10 11 11 11 10 10 11 10 10 10 11 11 10 10 10 10 10 10 11 8 11 7 6 7 8 8 5 7 8 10 9 8 8 9
16 19 21 18 15 14 15 13 12 13 11 11 11 11 11 10 11 11 12 13 12 12 10 10 10 10 9 9 10 9 8 6 5 5 6 7 7 8 8 9 9 10 9 9 9 9 9 9 9 9 11 14 16 14 13 13 11 11 11 11 11 11 11 10 10 10 10 10 9 9 10 10 10 10 10 11 13 13 10 8 6 6 8 8 8
15 18 18 16 15 14 13 14 14 14 13 12 12 10 10 11 11 12 13 13 12 11 10 10 10 10 10 11 11 9 8 5 7 11 10 7 7 7 8 8 9 9 10 10 9 10 10 10 10 14 15 17 18 18 18 18 18 14 12 12 13 12 12 12 12 11 11 12 12 11 11 11 12 12 12 11 9 7 8 9 8 7 4 3 3
17 15 16 17 18 17 15 14 16 16 14 13 11 9 10 11 12 14 13 12 11 10 10 10 11 12 12 11 12 10 8 7 13 14 15 18 11 7 8 8 9 9 10 10 11 10 10 10 9 11 14 16 16 20 19 20 21 22 21 20 19 16 14 13 13 13 13 13 12 11 11 12 11 11 11 10 9 10 9 8 7 6 7 7 7
15 16 18 20 20 18 15 16 16 16 15 14 12 8 9 11 13 14 14 14 12 10 11 11 11 12 12 11 11 10 9 10 15 15 18 19 16 10 8 9 10 10 11 11 11 10 9 9 9 9 10 12 12 13 18 21 21 20 21 21 22 24 19 17 15 12 12 11 12 12 12 11 11 10 10 9 9 8 7 7 8 8 8 8 5
15 16 18 18 17 16 15 16 16 15 14 14 11 10 12 14 15 15 14 13 12 12 13 12 13 13 12 12 11 10 7 11 16 18 19 20 21 16 9 10 9 10 11 11 11 10 9 10 10 9 10 17 14 12 12 14 19 22 21 21 22 22 21 20 18 17 14 12 12 12 13 11 11 10 11 10 9 9 8 7 7 7 6 6 5
16 18 18 17 16 14 14 15 15 14 15 16 15 15 13 15 15 14 14 13 12 12 13 14 13 13 11 10 10 8 8 10 17 18 18 20 20 18 10 10 10 11 11 11 10 11 11 10 9 9 9 10 10 12 12 12 13 15 15 15 14 18 21 22 20 18 16 13 13 13 10 9 11 9 10 11 12 11 9 9 7 7 6 5 3
19 17 17 16 15 14 15 15 15 16 16 16 16 16 15 15 15 13 13 13 11 11 11 11 11 9 8 7 6 7 7 14 16 18 19 20 20 17 9 10 9 10 11 11 12 12 12 11 11 10 10 10 10 12 12 12 12 12 14 14 14 14 14 14 14 12 12 10 9 9 9 9 8 9 9 8 9 8 8 7 7 5 5 3 3
17 17 16 16 16 16 16 15 15 15 16 16 16 17 16 15 15 15 14 13 11 11 10 10 11 9 8 7 7 8 8 15 17 17 18 18 19 10 8 9 9 9 10 10 10 10 10 10 9 10 10 10 15 21 17 12 12 13 14 14 13 12 12 12 14 12 10 9 8 7 7 7 9 9 9 9 9 9 10 8 7 6 6 3 3
17 17 17 16 17 16 15 14 14 15 16 16 17 17 16 17 15 12 13 13 13 12 10 10 10 8 6 5 6 7 7 12 17 18 19 19 16 9 8 8 8 9 9 7 8 8 9 10 11 10 11 11 16 23 24 20 13 14 13 14 12 11 11 10 19 20 16 15 13 14 14 16 17 17 17 17 12 11 9 8 5 6 6 4 3
17 17 16 17 17 15 13 13 15 16 16 16 17 17 16 14 15 12 12 13 13 13 11 10 11 8 7 7 7 8 8 10 16 19 20 21 18 10 8 8 9 9 8 7 7 8 11 18 14 11 11 11 17 24 25 20 14 14 13 14 15 13 10 10 9 12 21 18 17 18 18 17 18 18 18 17 18 12 10 9 7 7 6 6 6
17 17 17 17 17 14 12 14 15 16 15 16 14 16 16 15 15 13 12 12 12 12 10 10 10 8 7 8 11 12 10 11 17 19 22 22 17 10 9 8 10 9 8 8 7 8 9 12 18 15 13 12 21 23 26 21 13 14 14 13 14 15 11 12 11 10 11 11 11 13 12 14 11 10 11 17 16 9 6 7 7 8 7 6 5
17 17 17 16 14 13 13 15 16 15 16 17 16 15 14 14 14 14 13 10 11 10 10 10 10 9 8 8 8 9 10 10 13 20 21 23 24 14 9 10 10 9 7 6 7 7 7 7 12 21 19 19 22 24 25 26 14 13 12 12 13 14 10 11 11 9 10 10 8 9 11 9 9 9 7 8 7 5 6 6 7 7 7 7 7
17 17 16 15 15 16 15 14 16 16 15 15 15 15 14 14 14 13 12 11 10 10 12 11 10 9 8 8 9 10 9 9 8 12 11 10 11 12 6 6 5 6 7 7 6 7 6 7 6 15 21 21 22 24 25 26 20 12 12 11 11 11 13 11 13 15 9 10 11 10 8 8 7 7 7 6 5 4 4 4 4 5 7 7 6
15 16 17 17 16 16 15 15 15 14 14 13 12 15 13 13 12 12 10 10 12 12 12 10 9 9 9 8 6 4 4 8 8 10 12 12 13 15 9 6 6 6 6 6 6 6 7 7 6 13 21 22 22 22 24 24 25 11 11 14 18 22 14 10 9 9 9 10 9 8 8 8 7 6 5 5 4 4 4 4 3 3 2 4 7
16 16 16 16 15 15 15 16 16 13 14 14 13 15 14 13 13 13 13 12 11 11 9 9 8 7 5 4 3 4 5 5 9 7 10 13 14 15 16 11 11 7 7 7 7 7 5 6 7 17 21 21 21 21 22 23 21 12 21 22 22 24 16 9 9 10 9 9 9 9 8 8 7 7 6 5 4 4 5 4 3 2 1 1 2
16 15 15 15 15 15 15 15 14 13 13 13 14 14 14 13 13 10 11 11 10 9 7 8 7 6 7 7 5 4 4 4 5 9 8 13 14 15 14 15 14 6 6 6 6 6 7 7 8 17 19 19 20 20 20 19 13 22 22 23 24 21 11 10 10 10 9 9 9 8 8 6 7 6 5 5 5 5 5 4 3 3 2 1 1
15 15 15 15 15 15 15 14 14 13 12 12 13 12 13 13 12 11 11 10 10 9 7 8 9 8 8 7 6 5 5 4 4 6 11 13 14 13 12 11 11 13 7 5 7 6 8 11 15 18 18 18 18 19 15 21 22 22 21 23 21 10 11 10 10 10 9 9 8 7 6 5 5 6 7 7 6 6 4 3 2 2 1 1 1
16 16 15 15 15 15 16 14 13 12 12 10 11 11 12 12 10 11 11 10 9 10 8 8 8 8 7 7 6 5 4 4 5 5 5 7 8 9 10 12 11 15 10 7 10 12 13 15 17 18 17 13 10 6 7 13 20 21 22 20 10 11 10 10 9 10 9 8 8 7 7 5 7 6 7 7 6 5 4 4 3 1 1 1 0
16 15 16 15 14 13 14 12 12 11 11 10 9 10 10 10 11 10 8 9 10 10 9 8 8 7 6 5 6 6 5 4 5 4 4 4 4 5 7 5 12 10 7 6 8 7 10 10 8 10 8 12 11 14 16 18 14 12 11 9 9 9 9 9 10 9 8 8 7 7 5 5 5 7 6 6 6 4 4 4 4 3 4 4 1
16 16 17 14 13 13 13 17 16 11 11 11 10 10 10 10 10 10 10 10 10 11 11 9 9 6 4 4 6 7 6 3 2 4 4 4 5 1 6 8 6 6 7 6 6 6 7 9 11 6 6 8 9 7 8 9 11 10 9 8 8 8 10 12 10 7 6 7 8 8 7 6 6 6 6 6 6 4 4 4 3 3 3 2 1
16 16 15 13 12 12 12 12 11 12 12 12 10 9 10 11 11 10 10 9 9 11 11 9 8 4 4 5 6 6 5 2 2 3 5 6 4 5 7 7 6 5 9 12 8 7 7 8 8 8 8 9 10 10 10 10 9 10 10 9 8 8 8 8 9 8 8 9 9 8 8 7 6 6 6 6 5 5 3 4 2 5 1 2 1
15 15 13 13 12 12 12 12 12 11 11 11 12 13 13 16 14 11 11 17 22 22 16 9 9 7 6 5 5 6 4 3 5 5 4 7 3 14 13 13 12 10 13 14 8 8 7 8 7 8 8 9 10 10 10 10 9 8 8 9 8 8 7 7 7 8 7 8 8 9 8 8 7 7 6 7 5 4 4 5 3 3 2 2 1
14 13 13 12 13 13 11 12 11 11 11 11 11 12 14 12 11 15 16 16 20 19 17 16 16 14 8 5 7 12 7 4 4 2 3 1 15 17 16 16 18 18 18 12 7 7 8 8 8 8 8 9 10 9 9 10 10 9 7 7 6 8 8 8 7 7 7 8 7 7 8 8 8 7 7 7 7 5 3 2 3 3 2 2 1
14 14 13 12 13 12 10 11 11 11 11 10 10 11 12 15 16 10 9 14 19 17 18 17 18 19 16 8 4 1 1 4 2 2 2 5 16 16 18 18 18 18 16 14 9 7 7 8 8 7 8 9 9 8 9 9 9 9 9 8 7 6 8 7 7 8 8 8 8 7 7 7 7 7 7 7 7 7 5 3 2 3 1 1 2
16 14 13 12 12 12 11 10 10 10 11 11 12 11 11 11 12 17 18 14 16 17 16 18 19 20 14 12 10 6 4 3 2 4 3 10 16 16 18 18 17 18 16 9 8 7 7 8 8 7 8 9 8 8 7 8 9 8 8 8 7 6 6 6 7 7 7 7 8 7 7 7 7 7 6 6 7 6 5 4 4 2 2 1 0
16 12 12 13 12 11 10 10 10 10 9 10 10 10 10 10 11 12 12 14 13 13 16 19 20 18 14 14 11 9 7 4 4 4 6 15 17 18 16 12 15 12 10 8 8 8 7 8 7 7 7 8 8 8 8 7 7 8 7 7 7 7 7 6 7 7 7 7 7 7 7 7 7 8 7 5 4 6 6 5 4 3 2 2 1
14 14 20 16 10 10 10 10 10 10 10 9 9 9 9 10 9 10 10 10 10 9 9 10 13 17 13 10 12 11 9 6 4 4 9 17 19 20 16 9 8 7 6 5 6 7 8 8 8 7 7 8 7 8 8 7 7 8 8 8 7 7 6 6 7 7 7 7 7 7 7 7 6 6 7 7 7 5 5 4 4 4 4 1 0
14 12 11 12 11 10 10 10 10 9 10 9 9 9 9 9 10 8 9 8 9 7 8 8 8 9 16 15 16 11 9 8 5 5 14 20 19 15 9 7 7 6 6 6 6 6 6 7 8 8 7 7 7 7 7 7 7 7 7 9 9 7 7 7 7 7 6 7 7 7 6 5 6 6 5 6 6 7 5 6 5 4 2 1 1
13 11 11 11 11 10 11 10 9 10 11 10 9 8 8 8 8 9 9 9 8 6 7 7 8 9 10 9 12 15 19 17 16 18 20 17 16 9 6 6 6 6 6 6 7 6 7 6 7 7 7 8 7 7 7 7 7 7 7 7 7 8 6 6 7 7 8 7 6 6 5 6 6 6 7 7 6 5 5 4 3 3 3 3 3
13 12 12 13 13 12 10 10 10 13 10 9 8 8 8 8 8 8 8 8 8 7 7 7 7 7 7 7 9 6 7 11 14 12 12 12 9 7 6 6 6 6 6 6 6 7 7 6 6 7 7 7 8 7 7 7 7 7 8 7 6 6 10 9 8 8 7 7 6 6 6 6 5 5 6 7 7 6 4 4 3 2 1 2 2
13 17 20 22 15 11 9 10 10 10 10 9 8 8 8 7 8 8 7 7 6 6 7 6 6 7 7 6 4 5 7 7 6 6 6 6 6 6 6 6 6 6 5 6 6 6 6 7 5 6 6 7 7 7 7 7 7 7 7 7 7 7 8 7 7 7 6 6 6 6 6 6 4 4 5 7 6 5 5 4 4 3 3 2 2
13 12 14 20 12 12 11 10 10 9 9 9 9 8 8 7 7 7 7 7 6 6 6 6 7 7 7 3 5 5 7 6 6 5 5 5 6 6 5 6 5 5 5 5 5 6 7 6 6 6 6 6 7 7 6 7 7 7 7 7 8 7 7 6 7 7 7 6 6 6 6 6 5 6 5 5 5 5 5 5 4 4 4 3 3
12 12 12 13 14 12 10 10 9 9 10 9 9 8 8 8 7 7 6 5 6 6 6 5 6 7 8 9 13 10 6 6 6 6 6 6 6 6 6 5 5 5 5 5 5 5 6 6 6 6 6 6 6 6 7 7 7 7 7 6 7 7 7 6 6 6 7 6 6 6 6 6 6 6 6 5 5 4 3 3 3 4 4 3 4
13 12 12 11 13 11 11 11 10 11 10 9 9 8 8 8 6 5 5 6 6 6 5 5 6 6 10 18 15 15 8 5 5 6 7 6 6 6 6 6 5 5 5 5 5 6 6 6 6 6 6 6 6 6 7 7 7 7 7 7 8 7 7 7 6 6 7 6 6 6 5 6 5 4 4 5 4 5 4 4 2 2 2 3 3
13 11 11 11 11 10 10 10 10 10 10 10 10 8 8 8 8 7 6 5 5 5 5 6 6 6 8 12 12 12 8 7 7 7 7 7 7 7 7 7 6 6 6 5 5 5 6 6 6 6 5 5 5 6 7 7 7 7 7 7 8 7 7 7 6 6 6 6 6 5 5 4 5 4 4 4 4 3 4 3 2 1 1 1 1
11 10 11 10 10 10 10 10 10 10 10 11 11 8 8 7 7 7 7 6 6 6 6 6 6 6 6 8 9 8 7 7 7 7 8 7 7 7 6 6 6 6 6 6 5 6 6 7 7 6 6 6 5 5 5 5 6 7 8 8 7 7 7 7 7 7 7 7 6 7 6 5 5 4 4 4 4 3 4 3 2 1 0 1 1
10 11 10 10 10 10 10 10 10 10 10 10 9 9 8 7 7 7 7 7 6 6 6 6 6 6 7 7 7 8 7 7 7 7 8 7 7 7 6 6 6 6 6 6 6 6 7 7 7 7 7 6 5 6 5 5 5 6 6 8 8 8 7 7 6 6 7 7 7 6 6 6 5 5 5 4 3 2 2 3 2 1 1 1 1
11 11 11 11 11 11 11 10 10 10 10 10 9 9 8 8 8 8 7 7 7 6 6 7 7 7 7 7 7 8 7 7 7 7 7 7 6 6 6 6 6 7 7 6 6 7 6 6 6 7 7 7 6 6 6 6 6 6 6 5 6 6 6 6 6 7 7 7 7 6 6 5 4 4 6 6 4 3 2 1 1 2 2 1 2
11 10 11 10 10 10 11 11 10 10 10 10 9 9 8 8 8 7 7 8 8 7 7 7 7 7 6 7 6 7 7 6 6 6 7 7 6 6 6 5 6 7 7 7 7 7 7 7 6 6 7 6 6 7 6 6 6 6 6 6 6 7 6 6 6 6 6 6 7 7 6 6 5 3 4 2 2 2 2 2 3 2 2 2 2
10 10 10 10 10 10 10 10 10 12 10 10 9 9 8 8 8 8 7 7 8 7 7 7 7 6 6 7 6 6 6 6 6 6 6 6 6 6 6 6 7 6 5 6 6 6 6 6 6 6 6 6 6 6 6 6 6 6 5 6 6 6 8 8 6 6 5 6 6 6 6 7 4 4 3 3 2 1 1 1 0 1 2 2 3
9 9 10 10 10 10 10 10 10 9 10 9 9 9 9 8 8 7 7 7 7 7 7 6 6 6 6 6 6 7 7 7 7 6 6 6 6 6 6 6 7 6 6 7 6 6 6 6 6 6 6 6 6 6 6 6 6 5 5 5 7 11 11 10 7 5 7 6 6 6 5 5 5 4 4 3 2 2 1 1 1 2 2 2 3
10 10 10 10 10 10 10 10 9 9 9 9 9 8 8 8 7 7 8 7 7 7 7 7 7 6 6 6 7 7 7 7 7 7 7 6 6 6 6 6 7 6 6 6 6 6 6 5 6 6 6 6 6 6 6 5 5 5 5 6 9 11 10 10 9 9 7 5 6 5 6 5 4 4 4 4 3 2 1 2 2 3 2 3 4
11 10 10 10 10 10 9 9 9 9 9 9 9 8 8 8 7 7 7 7 7 7 7 7 6 7 7 7 7 7 7 7 7 6 6 6 6 6 6 6 6 6 6 6 6 6 5 5 5 6 6 6 6 6 5 5 4 5 7 10 10 10 10 9 7 8 8 6 4 5 6 6 5 5 3 4 3 2 4 3 2 3 4 4 4
Wind_Direction
332 323 321 318 314 313 319 321 314 301 294 293 293 292 294 290 277 272 275 271 261 259 260 259 255 253 248 241 237 227 219 213 205 204 208 214 216 220 222 215 218 222 221 221 219 222 222 225 224 220 213 215 220 213 203 194 190 195 195 198 207 207 203 208 215 177 37 152 164 170 172 166 177 179 173 173 177 176 164 173 177 189 194 194 200
322 322 317 310 307 312 317 317 310 298 285 285 283 282 280 279 278 269 255 256 266 266 259 251 251 248 244 238 235 232 227 223 207 200 206 213 217 213 218 217 223 228 223 221 216 215 216 224 227 223 213 212 212 214 199 194 188 194 199 199 206 209 206 204 210 158 168 134 128 142 162 174 172 179 175 170 178 167 171 173 181 184 194 188 195
322 316 309 306 311 317 316 310 306 298 287 280 278 278 278 277 270 265 272 282 276 264 248 242 238 242 248 246 237 233 227 225 218 205 203 207 209 210 212 211 219 226 228 230 227 221 221 220 223 221 217 216 214 211 199 198 197 201 202 200 206 209 206 205 195 174 166 166 161 160 172 175 177 178 179 178 169 166 170 181 185 193 191 192 199
324 316 311 312 311 306 303 303 302 298 291 282 279 281 283 283 277 266 255 250 251 255 277 284 275 253 247 247 242 235 230 226 224 217 212 202 203 208 205 205 213 224 228 232 231 228 230 231 228 217 210 211 212 209 204 200 201 204 205 203 205 209 206 203 206 173 169 155 183 170 172 170 182 179 174 161 165 172 179 184 186 192 194 198 201
312 305 306 309 312 313 309 302 298 294 288 281 278 276 275 272 269 274 278 277 283 289 286 278 275 273 259 244 242 242 236 229 222 222 221 213 205 199 199 202 208 214 220 224 227 226 230 232 231 215 205 212 212 208 202 205 206 207 205 203 206 206 201 201 203 178 165 173 158 171 168 145 160 163 168 166 167 172 173 182 186 186 191 195 198
306 313 324 322 315 307 304 299 295 295 298 297 295 296 299 301 301 299 296 293 289 284 277 270 265 264 260 247 237 236 235 229 222 219 216 212 213 210 204 203 205 207 213 217 219 221 228 234 236 219 207 210 215 211 204 204 204 209 209 207 203 198 196 201 198 193 173 174 162 151 178 168 168 179 172 171 169 174 186 186 184 188 186 201 201
320 328 321 317 310 304 300 295 292 295 300 301 303 306 303 298 295 291 287 282 281 278 272 267 261 259 260 254 244 234 229 223 220 217 215 210 207 206 207 211 213 210 208 208 212 218 221 227 231 224 216 214 215 212 206 203 202 208 209 208 200 191 194 197 196 196 184 167 169 169 166 181 173 172 180 175 180 178 177 172 201 208 203 195 211
325 319 313 307 301 298 298 294 292 292 295 302 307 311 315 317 316 313 310 301 290 275 266 265 265 263 262 261 254 244 233 225 217 216 216 215 213 215 215 217 224 228 230 225 216 213 217 221 225 225 221 218 217 217 209 206 201 207 207 204 198 193 194 193 194 193 189 175 171 171 168 168 173 172 157 161 170 178 184 183 196 196 200 204 207
323 317 309 303 298 298 297 304 313 308 305 305 305 303 301 304 306 306 299 295 293 295 298 297 293 291 288 275 263 254 249 235 215 209 216 220 213 215 216 219 221 227 230 230 225 224 225 226 229 231 226 222 219 217 214 206 200 204 204 197 195 194 194 190 190 191 192 183 175 169 168 175 178 165 168 177 187 188 180 184 190 187 186 192 206
321 312 307 304 301 306 316 318 311 309 312 313 314 323 330 328 321 311 301 293 287 285 292 295 289 283 282 279 268 253 240 233 234 231 224 212 212 216 216 217 219 224 230 232 231 228 228 229 230 229 231 229 226 221 218 213 207 203 200 191 192 193 192 189 190 191 188 188 186 177 178 184 180 181 179 186 176 165 171 183 190 193 173 180 206
313 308 322 328 325 321 321 321 317 313 314 309 306 315 323 326 320 308 294 288 287 289 282 281 282 283 277 268 262 256 241 221 227 242 244 242 233 216 212 219 222 224 226 227 232 229 229 226 228 229 230 232 231 228 222 218 213 210 206 202 198 190 187 190 194 190 190 193 189 184 188 186 185 180 181 171 174 181 178 177 178 176 184 179 197
325 330 326 319 312 313 317 315 309 307 308 303 304 323 324 316 306 296 289 284 281 278 275 271 272 271 267 262 257 248 238 233 235 238 244 248 245 235 227 225 220 220 218 221 223 224 225 226 226 225 226 229 230 228 226 217 210 203 199 198 199 200 193 187 187 190 193 192 191 195 188 188 178 174 179 173 174 170 175 166 174 183 178 181 181
328 325 318 307 305 306 310 307 305 307 309 313 324 328 320 313 305 296 288 284 280 277 274 274 269 264 259 256 252 250 237 230 239 242 246 245 245 242 233 228 228 228 224 221 219 219 218 219 221 218 220 227 229 225 222 218 206 198 195 192 192 194 196 198 194 190 187 189 193 195 193 182 174 183 175 172 166 167 165 172 180 180 172 162 177
326 318 311 308 307 304 302 306 315 322 324 322 319 314 309 303 302 298 290 281 273 270 268 266 263 255 249 245 241 234 236 235 241 243 245 243 245 247 237 233 226 227 230 227 223 219 216 215 216 217 211 214 215 215 212 212 209 199 193 192 194 196 195 195 195 196 192 191 192 195 193 177 183 172 171 165 166 170 167 176 175 166 163 161 134
318 311 308 311 317 316 318 325 326 323 319 314 309 305 302 300 299 298 293 288 280 273 276 283 279 268 250 235 230 234 229 246 250 249 251 251 247 245 238 236 232 231 228 226 219 217 212 213 215 214 206 203 205 204 203 203 201 198 195 195 195 196 194 194 194 191 193 194 196 193 178 177 170 162 163 159 158 156 161 163 153 138 114 79 35
313 313 315 321 321 319 321 324 321 315 310 307 305 303 303 299 298 297 292 287 283 280 277 276 276 268 256 249 247 255 258 265 264 264 262 262 264 259 242 230 232 232 236 231 222 216 214 209 212 211 205 203 208 206 198 192 193 193 194 194 194 194 196 196 192 185 187 183 179 173 167 160 148 140 140 130 116 110 97 90 84 92 102 104 189
317 318 318 320 318 317 320 320 316 311 309 307 305 305 304 301 297 292 287 286 285 282 281 281 280 268 254 249 247 256 256 265 269 266 264 262 262 253 241 234 232 232 229 221 208 211 209 209 208 209 203 204 203 205 204 189 189 191 190 189 188 187 193 189 195 190 182 175 172 163 154 151 145 142 140 134 131 127 113 112 141 136 125 144 234
320 318 319 318 314 315 318 318 313 310 308 306 304 303 300 295 289 287 285 287 288 286 284 282 280 271 264 266 266 270 268 264 267 268 264 262 258 251 245 242 240 235 233 218 208 207 215 218 212 204 201 202 198 203 204 193 185 188 185 182 181 183 183 176 181 190 186 180 172 165 155 149 146 145 144 142 141 136 142 168 168 132 154 173 210
321 320 318 314 312 314 318 315 311 308 304 303 302 302 300 296 292 286 276 274 275 278 277 274 276 272 263 257 255 257 261 259 256 259 260 259 259 249 244 234 241 237 228 220 204 211 217 217 206 204 201 196 200 203 203 193 182 183 182 178 182 184 178 168 172 171 174 164 165 164 150 146 139 137 147 146 144 137 130 141 141 148 167 181 184
321 318 315 313 314 317 315 312 309 307 304 303 302 299 297 296 290 287 281 275 279 279 277 273 270 270 269 262 258 254 259 258 254 256 254 257 259 254 235 236 232 230 213 199 200 207 206 203 212 210 197 196 200 202 205 193 179 180 176 178 178 181 160 163 169 165 164 154 133 104 94 97 98 96 102 118 111 97 111 129 150 154 165 171 174
320 317 315 316 317 315 312 308 307 305 302 300 297 296 294 290 287 281 278 280 277 275 275 272 269 271 267 262 259 259 262 275 291 297 303 304 298 286 255 233 212 192 197 197 194 188 189 199 195 208 201 196 199 205 206 195 178 174 178 179 178 156 151 161 167 163 142 122 117 116 110 99 97 99 102 102 100 94 94 103 116 149 159 164 165
318 319 319 317 314 311 309 308 305 303 300 299 294 292 292 289 289 292 284 269 277 278 273 270 273 273 273 275 283 303 319 311 300 299 291 287 281 272 262 236 218 197 193 187 185 181 187 186 187 199 198 195 199 203 206 193 175 166 173 171 165 163 159 154 147 127 126 131 127 124 129 125 128 130 125 121 122 119 108 106 111 117 126 156 171
320 320 317 313 311 310 309 309 308 305 300 296 293 296 296 299 304 305 302 300 288 277 271 278 278 277 284 301 315 314 315 307 302 291 289 289 287 277 265 259 237 210 178 179 184 179 173 181 188 193 194 195 199 201 207 185 167 160 174 173 168 159 144 138 126 133 132 136 137 141 145 144 141 142 145 137 129 120 116 118 107 106 76 67 66
320 315 312 313 311 311 311 308 306 304 301 301 301 299 301 308 311 308 312 310 309 311 331 330 327 325 322 314 312 300 292 303 294 294 294 289 286 278 268 258 249 175 178 170 174 169 168 178 174 189 192 194 199 198 207 176 152 167 175 171 163 148 129 128 135 137 138 137 146 149 148 146 135 137 144 135 133 124 121 121 112 108 94 48 7
317 314 314 313 313 312 309 307 306 305 304 306 307 307 308 313 311 314 313 315 315 317 332 333 325 320 318 311 302 287 284 291 284 291 292 293 289 281 271 266 247 183 168 156 161 170 169 165 171 183 188 189 194 195 190 156 159 164 168 163 146 122 132 135 139 139 145 153 151 140 124 116 116 111 105 109 108 98 93 75 71 69 70 65 317
317 316 315 314 313 312 309 309 307 306 309 311 310 309 309 312 313 314 317 315 314 313 320 328 322 316 310 306 297 285 281 277 289 292 293 297 298 283 270 265 202 177 160 151 154 160 165 167 174 178 179 180 176 153 129 149 155 162 153 135 123 134 135 139 140 148 151 146 135 129 123 110 97 107 107 112 116 141 140 138 117 106 121 145 307
317 318 316 315 313 312 312 311 314 315 314 313 311 313 314 313 312 308 306 309 312 308 311 321 318 307 299 318 325 306 274 260 279 291 300 307 289 271 266 205 147 132 114 127 140 149 160 163 166 154 151 153 129 131 136 144 142 123 108 119 124 129 138 146 151 141 138 126 117 109 105 98 100 108 118 123 131 162 162 138 129 159 163 192 158
319 319 318 317 317 318 316 317 318 316 318 318 319 318 315 310 307 306 309 310 309 310 314 323 320 308 330 328 320 306 287 260 263 291 308 310 301 341 98 92 102 108 114 114 116 133 143 156 151 124 124 110 112 95 87 83 100 108 106 105 113 116 121 114 96 98 97 108 105 111 108 123 120 126 128 129 133 134 125 118 135 138 128 107 61
318 317 318 318 317 317 315 316 318 319 319 319 313 307 306 307 303 296 287 284 296 305 309 323 323 329 321 314 304 292 298 320 274 276 284 295 313 104 102 101 109 112 128 127 113 86 81 87 88 98 94 98 89 97 98 93 82 98 107 106 107 109 108 115 122 119 125 122 130 133 135 126 126 126 134 124 130 141 152 127 117 121 114 99 135
320 320 321 320 319 317 317 317 320 319 318 315 314 311 304 304 301 298 304 307 310 312 325 332 332 330 321 294 272 282 288 268 310 304 280 295 100 115 115 122 125 129 130 114 101 103 101 96 95 103 111 106 109 110 114 110 108 98 100 105 105 107 105 104 110 122 122 127 134 135 137 132 132 140 130 131 133 145 169 147 154 137 114 147 144
320 319 320 320 317 317 315 317 317 317 316 316 316 314 316 311 300 298 297 303 309 324 350 341 338 329 321 292 286 293 302 317 324 285 231 237 127 125 128 131 133 130 121 109 91 102 109 104 105 110 116 118 117 117 113 114 111 104 97 100 99 106 107 109 117 121 124 127 131 130 134 133 139 145 139 142 144 154 140 126 130 132 143 156 155
320 319 316 313 314 316 314 312 313 314 314 315 315 316 318 320 320 317 319 325 324 344 353 347 339 337 337 349 17 304 327 331 335 195 205 151 132 130 132 133 131 128 123 110 103 99 106 109 110 108 111 110 112 114 117 118 121 120 121 112 110 109 120 124 131 125 129 129 129 127 125 128 130 133 133 137 139 148 158 154 158 155 205 161 202
319 315 314 314 315 315 314 311 311 313 314 317 317 317 318 321 322 324 328 336 337 344 352 348 348 346 15 29 29 29 19 349 76 127 145 139 133 132 132 131 129 125 112 101 110 108 104 106 110 112 115 117 120 119 117 119 123 125 123 121 119 119 113 120 123 118 124 127 120 120 124 123 124 121 130 140 139 141 141 137 142 146 158 133 350
317 315 317 317 316 313 312 310 309 310 308 307 307 309 309 310 310 311 313 322 339 346 347 342 342 345 14 18 33 30 36 59 103 121 138 137 132 126 119 115 113 108 108 120 118 116 114 111 112 118 120 119 117 116 115 118 121 117 110 98 105 114 118 119 115 119 112 111 113 119 120 126 133 133 135 132 127 120 129 146 141 128 133 163 188
319 316 317 317 313 310 309 307 307 305 305 307 306 306 306 304 301 305 306 315 318 333 339 330 333 342 9 6 37 37 47 59 83 119 129 133 122 114 106 100 94 84 79 75 103 116 122 120 121 121 123 120 122 125 126 125 121 118 119 120 116 118 121 118 114 114 116 116 116 120 130 134 136 135 138 140 136 131 140 139 143 150 157 177 135
322 318 315 315 313 311 308 307 304 303 303 303 303 303 303 303 306 304 308 308 313 331 333 329 329 334 3 6 27 43 49 52 66 111 129 117 110 104 98 99 97 92 90 85 88 92 97 111 117 118 116 114 116 117 124 125 121 120 126 132 135 135 129 125 122 114 114 114 121 128 121 117 123 123 114 111 129 139 146 149 161 173 163 154 159
322 321 319 316 314 311 309 306 304 304 305 304 304 305 302 303 300 306 307 312 317 336 331 326 340 350 0 359 11 33 49 57 68 84 92 90 86 76 81 85 97 97 92 98 98 102 99 99 110 115 119 122 120 121 120 115 115 115 119 117 130 129 125 127 126 122 119 119 125 132 135 136 133 136 134 130 125 128 149 158 154 179 172 184 169
319 319 316 314 312 311 310 310 311 312 310 307 305 302 303 303 303 306 309 316 326 338 339 338 351 353 357 346 14 27 56 59 58 55 58 64 65 74 75 79 78 90 95 93 96 101 104 108 113 117 118 119 122 120 114 114 119 122 120 120 114 122 131 122 115 110 113 120 131 132 129 134 139 138 128 131 148 152 156 157 147 153 140 254 187
326 320 319 318 317 315 315 316 315 316 313 312 309 309 305 303 308 310 317 320 331 345 340 344 351 354 349 338 9 15 51 51 53 56 56 64 67 69 81 79 84 83 82 90 97 99 106 108 106 102 110 114 116 119 120 121 119 118 123 125 127 124 120 117 122 124 127 132 128 131 134 145 137 119 118 127 141 149 157 166 174 168 180 205 220
324 324 320 322 323 322 322 320 316 315 315 313 313 311 307 305 306 311 319 324 344 348 342 348 357 350 341 3 24 30 58 57 59 57 58 59 66 65 69 78 81 94 99 97 95 104 105 105 108 110 112 115 118 119 117 119 118 122 128 130 128 126 131 131 134 136 140 140 139 144 141 135 128 110 105 129 153 158 158 178 189 186 188 201 226
324 322 319 322 324 324 322 321 322 322 319 315 310 306 305 305 307 317 322 343 350 346 341 353 1 358 359 42 56 58 56 59 56 63 59 61 64 66 67 71 82 81 80 89 97 102 108 112 112 112 111 113 117 118 120 116 121 128 131 125 119 122 128 133 131 127 133 139 141 134 132 127 127 126 141 162 166 156 177 173 190 205 213 221 223
324 323 323 324 326 328 327 327 327 324 323 322 322 322 319 320 320 325 347 4 354 348 344 355 6 3 18 35 52 55 55 49 61 63 63 60 61 62 61 61 61 71 78 85 100 107 108 105 107 111 116 118 120 118 117 125 134 135 134 130 129 132 134 140 137 135 136 138 132 129 130 134 146 152 163 154 143 162 187 184 191 200 225 236 249
323 321 322 323 326 328 328 327 328 330 333 333 334 326 339 355 359 359 357 6 359 352 349 4 10 18 23 28 42 44 45 41 45 49 52 58 54 55 51 51 52 58 66 68 72 87 100 104 100 97 99 104 110 128 137 145 145 138 132 130 133 135 138 137 136 134 126 120 123 131 137 142 131 123 128 142 167 166 165 170 206 210 215 276 282
322 324 324 325 326 327 329 330 333 333 333 331 327 331 359 352 359 2 359 5 2 358 1 13 15 24 29 31 39 43 43 42 44 49 50 54 53 54 49 48 49 52 60 61 69 75 89 93 98 93 86 91 98 108 116 131 135 135 134 131 133 138 142 145 146 144 135 128 130 137 142 137 139 139 149 168 160 170 194 187 186 186 210 284 329
328 329 329 331 333 332 332 334 336 334 333 338 342 342 356 360 357 0 4 7 3 3 11 21 24 26 32 34 39 43 41 39 42 47 51 50 50 51 47 46 47 51 54 54 61 74 86 92 100 102 100 95 91 95 95 101 106 117 128 136 141 146 155 154 148 139 133 136 141 143 142 141 148 154 165 172 172 178 190 187 176 173 315 307 337
330 332 334 336 334 335 337 338 337 340 342 344 342 344 352 1 4 4 7 6 6 14 16 26 30 33 34 38 41 44 45 41 39 40 45 44 44 48 46 47 49 56 55 55 55 64 72 80 91 96 99 95 89 82 82 82 87 93 102 103 114 123 129 131 135 130 140 147 149 146 144 148 166 165 168 179 191 180 168 181 195 211 206 232 256
333 335 337 334 333 334 337 336 339 344 345 341 343 342 351 0 3 4 5 11 12 19 26 31 32 34 36 43 45 45 46 46 48 47 48 45 44 46 49 52 51 56 53 53 54 58 65 71 79 87 93 93 89 84 79 76 76 80 80 94 104 113 124 132 133 136 140 142 139 136 146 153 158 153 151 141 151 180 184 218 214 226 237 234 251
338 337 335 335 333 337 338 338 344 346 345 342 342 343 352 358 4 4 7 12 20 21 23 32 33 34 39 46 48 50 56 57 58 55 53 48 43 38 43 53 58 55 53 54 53 61 66 71 77 81 85 85 87 87 83 82 78 78 75 85 103 120 123 122 115 109 113 124 132 140 145 148 153 155 160 154 166 158 171 238 252 287 265 278 271
338 338 336 338 339 342 342 343 345 346 346 343 344 347 355 360 5 8 9 18 22 26 26 27 28 28 37 37 39 46 51 54 54 53 50 45 39 41 42 52 57 59 60 65 60 58 63 65 70 74 80 82 85 88 86 86 85 83 85 91 104 111 112 112 112 109 107 103 111 111 112 118 133 145 156 155 184 190 201 227 237 249 280 283 278
341 339 340 341 344 345 342 343 343 344 343 342 345 348 355 1 6 11 13 16 24 27 30 32 39 35 36 38 40 42 45 46 48 50 50 47 44 44 45 50 56 57 60 62 62 59 62 64 69 71 77 79 80 81 85 88 91 97 98 102 104 105 109 110 109 109 106 107 113 119 124 129 134 149 166 172 179 181 212 232 241 250 268 274 270
345 344 344 344 343 343 342 343 345 346 343 345 347 352 359 1 6 11 14 18 19 23 29 31 34 37 41 39 49 52 54 55 51 50 48 49 43 45 48 53 54 58 59 60 62 60 63 63 69 69 74 78 78 79 79 85 92 103 105 104 105 107 107 106 105 104 108 108 109 112 125 139 143 156 182 194 185 183 224 231 247 252 257 251 258